208617 (2002 EB3) |
Classification: Apollo [NEO] SPK-ID: 2208617 |
[ hide orbit diagram ]
For accurate long-term ephemerides, please instead use our Horizons system.This orbit viewer was implemented using two-body methods, and hence should not be used for determining accurate long-term trajectories (over several years or decades) or planetary encounter circumstances.
Orbital Elements at Epoch 2459200.5 (2020-Dec-17.0) TDB
Reference: JPL 108 (heliocentric ecliptic J2000)
Element | Value | Uncertainty (1-sigma) | Units |
e | .6840391208159781 | 2.7868e-08 | |
a | 1.758063694525518 | 1.5321e-09 | au |
q | .5554793505837925 | 4.8691e-08 | au |
i | 9.924089991054172 | 7.2216e-06 | deg |
node | 1.558592713948095 | 1.8979e-05 | deg |
peri | 300.3150580678863 | 2.0108e-05 | deg |
M | 343.8589466384317 | 3.6427e-06 | deg |
tp | 2459238.675058179142 (2021-Jan-24.17505818) | 8.6484e-06 | TDB |
period | 851.4327185865745 2.33 | 1.113e-06 3.047e-09 | d yr |
n | .4228167324807766 | 5.527e-10 | deg/d |
Q | 2.960648038467244 | 2.5801e-09 | au |
|
| | Orbit Determination Parameters
Additional Information
|
[ show covariance matrix ]
Physical Parameter Table
Parameter |
Symbol |
Value |
Units |
Sigma |
Reference |
Notes |
absolute magnitude |
H |
17.7 |
|
n/a |
MPO440111 |
|
|
208617 (2002 EB3) Discovered 2002-Mar-09 by LINEAR at Socorro |
Reference: 20090311/Numbers.arc | Last Updated: 2009-03-12 |
|
[ show close-approach data ]
|